TimeEDT,TemperatureF,Dew PointF,Humidity,Sea Level PressureIn,VisibilityMPH,Wind Direction,Wind SpeedMPH,Gust SpeedMPH,PrecipitationIn,Events,Conditions,WindDirDegrees,DateUTC
12:04 AM,66.2,64.4,94,30.06,1.2,Calm,Calm,-,N/A,,Clear,0,2013-10-06 04:04:00
12:12 AM,66.2,64.4,94,30.06,1.0,Calm,Calm,-,N/A,,Clear,0,2013-10-06 04:12:00
12:22 AM,64.4,64.4,100,30.06,0.2,Calm,Calm,-,N/A,Fog,Fog,0,2013-10-06 04:22:00
12:36 AM,66.2,64.4,94,30.06,1.2,Calm,Calm,-,N/A,,Scattered Clouds,0,2013-10-06 04:36:00
12:54 AM,64.9,63.0,93,30.06,1.0,Calm,Calm,-,N/A,,Clear,0,2013-10-06 04:54:00
1:01 AM,64.4,62.6,94,30.06,1.8,Calm,Calm,-,N/A,,Clear,0,2013-10-06 05:01:00
1:33 AM,64.4,62.6,94,30.06,2.5,Calm,Calm,-,0.01,,Clear,0,2013-10-06 05:33:00
1:54 AM,64.0,62.1,93,30.06,3.0,Calm,Calm,-,0.01,,Clear,0,2013-10-06 05:54:00
2:34 AM,62.6,62.6,100,30.04,2.0,Calm,Calm,-,N/A,,Clear,0,2013-10-06 06:34:00
2:47 AM,64.4,62.6,94,30.04,3.0,Calm,Calm,-,N/A,,Clear,0,2013-10-06 06:47:00
2:54 AM,64.0,62.1,93,30.03,4.0,Calm,Calm,-,N/A,,Clear,0,2013-10-06 06:54:00
3:54 AM,63.0,61.0,93,30.03,4.0,Calm,Calm,-,N/A,,Clear,0,2013-10-06 07:54:00
4:54 AM,62.1,60.1,93,30.03,2.0,Calm,Calm,-,N/A,,Clear,0,2013-10-06 08:54:00
5:16 AM,62.6,60.8,94,30.03,4.0,Calm,Calm,-,N/A,,Clear,0,2013-10-06 09:16:00
5:54 AM,64.9,62.1,90,30.04,5.0,Calm,Calm,-,N/A,,Clear,0,2013-10-06 09:54:00
6:54 AM,62.1,59.0,90,30.04,5.0,Calm,Calm,-,N/A,,Clear,0,2013-10-06 10:54:00
7:12 AM,62.6,60.8,94,30.04,2.5,Calm,Calm,-,N/A,,Clear,0,2013-10-06 11:12:00
7:35 AM,66.2,62.6,88,30.05,3.0,Calm,Calm,-,N/A,,Clear,0,2013-10-06 11:35:00
7:54 AM,66.9,64.0,90,30.05,3.0,Calm,Calm,-,N/A,,Clear,0,2013-10-06 11:54:00
8:54 AM,71.1,66.9,87,30.06,5.0,South,3.5,-,N/A,,Clear,190,2013-10-06 12:54:00
9:54 AM,77.0,66.9,71,30.06,8.0,South,5.8,-,N/A,,Clear,190,2013-10-06 13:54:00
10:54 AM,82.9,66.9,58,30.06,10.0,South,6.9,-,N/A,,Unknown,190,2013-10-06 14:54:00
11:54 AM,87.1,66.0,49,30.05,10.0,Variable,5.8,-,N/A,,Clear,0,2013-10-06 15:54:00
12:54 PM,88.0,64.0,45,30.03,10.0,South,10.4,-,N/A,,Clear,170,2013-10-06 16:54:00
1:54 PM,88.0,64.0,45,30.01,10.0,SW,10.4,-,N/A,,Scattered Clouds,230,2013-10-06 17:54:00
2:54 PM,89.1,63.0,42,30.00,10.0,SW,9.2,-,N/A,,Scattered Clouds,230,2013-10-06 18:54:00
3:54 PM,88.0,63.0,43,29.99,10.0,SSW,12.7,-,N/A,,Partly Cloudy,200,2013-10-06 19:54:00
4:54 PM,84.9,66.0,53,29.99,10.0,South,12.7,-,N/A,,Clear,170,2013-10-06 20:54:00
5:54 PM,81.0,64.9,58,29.99,10.0,SSE,11.5,-,N/A,,Clear,160,2013-10-06 21:54:00
6:54 PM,77.0,64.0,64,30.01,10.0,SSE,11.5,-,N/A,,Clear,160,2013-10-06 22:54:00
7:54 PM,73.0,64.0,73,30.02,10.0,SSE,10.4,-,N/A,,Clear,160,2013-10-06 23:54:00
8:54 PM,71.1,66.0,84,30.02,10.0,South,8.1,-,N/A,,Clear,170,2013-10-07 00:54:00
9:54 PM,71.1,66.9,87,30.03,10.0,SSE,8.1,-,N/A,,Clear,160,2013-10-07 01:54:00
10:54 PM,70.0,66.9,90,30.02,10.0,SSE,8.1,-,N/A,,Clear,160,2013-10-07 02:54:00
11:54 PM,70.0,66.9,90,30.01,8.0,SSE,6.9,-,N/A,,Clear,160,2013-10-07 03:54:00